Regional Weather Roundup
Issued by NWS

Home | Current Version | Previous Version | Text Only | Print | Product List | Glossary Off
Versions: 1 2 3 4 5 6 7 8 9 10 11 12 13 14 15 16 17 18 19 20 21 22 23 24 25 26 27 28 29 30 31 32 33 34 35 36 37 38 39 40 41 42 43 44 45 46 47 48 49 50

000
ASUS45 KSLC 250110
RWRUT

UTAH REGIONAL WEATHER ROUNDUP
NATIONAL WEATHER SERVICE SALT LAKE CITY UT
600 PM MST SAT JAN 24 2015

UTZ001>011-023>025-250200-

NORTHERN UTAH

CITY           SKY/WX    TMP DP  RH WIND       PRES   REMARKS
BRIGHAM CITY   CLOUDY    34  26  73 CALM      30.47S
HILL AFB       CLOUDY    35  22  59 N6        30.45R WCI  30
LOGAN          CLOUDY    32  25  75 CALM      30.46S
OGDEN          CLOUDY    34  25  69 CALM      30.44S
PROVO AIRPORT  MOCLDY    36  21  55 CALM      30.45S
SALT LAKE CITY CLOUDY    37  28  70 N6        30.45R WCI  32
VERNAL         MOCLDY    32  16  51 CALM      30.34R
WENDOVER       PTCLDY    37  27  65 NE5       30.45R WCI  34
HEBER CITY     CLOUDY    34  23  64 CALM      30.42R
WEST JORDAN    CLOUDY    37  25  60 CALM      30.45R

$$

UTZ012>022-026-027-250200-

SOUTHERN/CENTRAL UTAH

CITY           SKY/WX    TMP DP  RH WIND       PRES   REMARKS
BLANDING       MOCLDY    41  17  37 CALM      30.36R
BRYCE CANYON   CLEAR     36  17  46 NW7       30.37R WCI  30
CEDAR CITY     CLEAR     40  21  46 N9        30.37R WCI  34
DELTA          CLOUDY    40  25  55 S6        30.43S
MILFORD        CLEAR     38  22  52 N12       30.41R WCI  30
MOAB/CYNLANDS  CLEAR     39  18  42 NE3       30.33R
PRICE          MOCLDY    36  17  46 E6        30.33R WCI  31
ST GEORGE      PTCLDY    55  19  24 SW6       30.27R
KANAB          CLEAR     45  18  33 E5        30.31R

$$

REGIONAL REPORTS     COLORADO/ARIZONA

CITY           SKY/WX    TMP DP  RH WIND       PRES   REMARKS
CRAIG, CO      CLOUDY    27  19  72 SW3       30.32R
GRAND JUNCTION MOCLDY    30  20  66 CALM      30.34R
RIFLE          CLOUDY    32  14  47 SW3       30.35R
MONTROSE       MOCLDY    32  12  43 NE5       30.36R WCI  27
CORTEZ         CLEAR     39  14  36 W6        30.28R WCI  35
PAGE, AZ       NOT AVBL
GRAND CANYON   PTCLDY    38  13  35 NE6       30.30R WCI  33
KINGMAN        CLEAR     54  18  24 NE13      30.19R
FLAGSTAFF      PTCLDY    37  11  34 CALM      30.27S

$$

REGIONAL REPORTS    NEVADA/IDAHO/WYOMING

CITY           SKY/WX    TMP DP  RH WIND       PRES   REMARKS
LAS VEGAS, NV  PTCLDY    64  19  17 SE3       30.16F
ELY            CLEAR     43  24  47 N12       30.39S
ELKO             N/A     42  28  57 SW3       30.41S
POCATELLO, ID  CLOUDY    31  29  92 N5        30.43S WCI  26
BURLEY         CLOUDY    38  31  76 CALM      30.42R
EVANSTON, WY   CLOUDY    32  26  78 SW10      30.39F WCI  24
ROCK SPRINGS   MOCLDY    34  26  72 W31G40    30.27R WCI  20
KEMMERER       CLOUDY    30  27  86 W15       30.35R WCI  19

$$



USA.gov is the U.S. government's official web portal to all federal, state and local government web resources and services.